Вернуться в каталог

STARLINK-4390

АктивенСвязьPO
NORAD 53653·PAYLOAD·🇺🇸 United States

Запущен Aug 31, 2022 с Vandenberg Space Force Base

Loading…

Ближайшие Пролёты (ближайшие 24 часа)

TLE

СвежийSource: CelesTrak SupGP

Эпоха: Sep 14, 2026, 21:50 UTC

1 53653C 22105F   26257.91020833  .00810430  00000+0  13647-2 0  2575
2 53653  97.5866 148.4547 0002977 170.4013 339.0359 16.02351522    19

Отслеживайте STARLINK-4390 в реальном времени с AllMySat

Download on the App Store